Regional Weather Roundup
Issued by NWS

Home | Current Version | Previous Version | Graphics & Text | Print | Product List | Glossary On
Versions: 1 2 3 4 5 6 7 8 9 10 11 12 13 14 15 16 17 18 19 20 21 22 23 24 25 26 27 28 29 30 31 32 33 34 35 36 37 38 39 40 41 42 43 44 45 46 47 48 49 50
000
ASUS45 KTFX 302004
RWRMT
MONTANA REGIONAL WEATHER ROUNDUP
NATIONAL WEATHER SERVICE GREAT FALLS MT
200 PM MDT SUN AUG 30 2015

NOTE: "FAIR" INDICATES FEW OR NO CLOUDS BELOW 12000 FEET WITH NO
SIGNIFICANT WEATHER AND/OR OBSTRUCTIONS TO VISIBILITY.

MTZ001>007-043-302100-
WEST OF THE DIVIDE

CITY           SKY/WX    TMP DP  RH WIND       PRES   REMARKS
KALISPELL      CLOUDY    71  43  36 VRB7      29.79F
MISSOULA       CLOUDY    70  43  37 NW3       29.86F HAZE
BUTTE          MOSUNNY   73  33  23 SW13G23   29.91F
MULLAN PASS    CLOUDY    49  39  68 SW13G25   29.98R
DEER LODGE       N/A     73  43  33 N9        29.90F
EUREKA           N/A     57  48  72 E9          N/A
HAMILTON         N/A     73  41  31 W13       29.84F
LIBBY            N/A     57  48  72 SE5       29.87R
$$

MTZ008-052>055-302100-
SOUTHWEST MONTANA

CITY           SKY/WX    TMP DP  RH WIND       PRES   REMARKS
BOZEMAN        MOSUNNY   80  46  30 E8        29.84F
DILLON         PTSUNNY   77  33  20 VRB3      29.87F
W YELLOWSTONE  MOSUNNY   66  41  39 SW22G32   30.08S
$$

MTZ009-010-012-014-046-048-049-054-302100-
EAST SLOPES AND CENTRAL MONTANA

CITY           SKY/WX    TMP DP  RH WIND       PRES   REMARKS
CUT BANK       SUNNY     75  34  22 W33G39    29.76F
GREAT FALLS    PTSUNNY   74  41  30 W29G35    29.78F
MALMSTROM AFB  MOSUNNY   79  41  26 W15G26    29.79F
HELENA         PTSUNNY   76  44  32 E7        29.80F
$$

MTZ011-013-016-021-045-047-050-051-302100-
NORTH CENTRAL MONTANA

CITY           SKY/WX    TMP DP  RH WIND       PRES   REMARKS
HAVRE          SUNNY     77  48  35 MISG      29.74F
LEWISTOWN      PTSUNNY   78  42  27 W8        29.84F
N BAR RANCH      N/A     79  45  29 SW16G24   29.88S
CHINOOK          N/A     77  46  33 SW8       29.74F
FORT BENTON      N/A     81  45  28 SW12G17   29.76F
$$

MTZ017>020-022>027-061-062-302100-
NORTHEAST MONTANA

CITY           SKY/WX    TMP DP  RH WIND       PRES   REMARKS
GLASGOW        MOSUNNY   78  52  40 E9        29.72F
JORDAN           N/A     79  50  36 NE3       29.77F
SIDNEY         CLOUDY    82  52  34 NW30      29.72R
WOLF POINT     CLOUDY    78  54  43 NW12      29.78F
PLENTYWOOD       N/A     79  43  27 NW17G23   29.76S
POPLAR           N/A     81  50  34 NW14      29.76F
$$

MTZ028>42-056>058-302100-
SOUTHCENTRAL AND SOUTHEAST MONTANA

CITY           SKY/WX    TMP DP  RH WIND       PRES   REMARKS
BAKER          PTSUNNY   87  52  29 NW21G30   29.80R
BILLINGS       MOSUNNY   80  48  32 E12G18    29.86F HAZE
LIVINGSTON     MOSUNNY   83  48  29 MISG      29.84F
MILES CITY     PTSUNNY   81  49  32 N21G26    29.81R
FORSYTH          N/A     81  48  32 N13       29.81F
$$

REGIONAL REPORTS...DAKOTAS

CITY           SKY/WX    TMP DP  RH WIND       PRES   REMARKS
WILLISTON      CLOUDY    84  46  26 N18       29.71F
MINOT          PTSUNNY   90  52  27 SW13      29.62R
DICKINSON      PTSUNNY   91  47  21 NW13      29.71F
BISMARCK       PTSUNNY   92  60  34 S13       29.65F HX  91
GRAND FORKS    CLOUDY    87  69  54 S14G22    29.70F HX  91
FARGO          SUNNY     87  66  49 S16G26    29.76F
BUFFALO SD       N/A     94  47  20 NW17G28   29.71R HX  90
RAPID CITY     SUNNY     96  56  26 SE8       29.77F HX  94
$$

REGIONAL REPORTS...WYOMING/IDAHO/WASHINGTON

CITY           SKY/WX    TMP DP  RH WIND       PRES   REMARKS
GILLETTE       PTSUNNY   95  40  14 W14G22    29.84F HX  91
SHERIDAN       PTSUNNY   85  49  28 N12       29.89F
BUFFALO WY     PTSUNNY   77  48  35 N21G26    29.95S
CODY           MOSUNNY   75  52  43 NE5       29.92F
YELLOWSTONE LA   N/A     65  40  39 VRB5      30.18F
IDAHO FALLS    MOSUNNY   78  46  32 S18G29    30.01F
SALMON         PTSUNNY   79  36  21 S20G29    29.82F
BOISE          MOSUNNY   76  40  27 NW9       29.98F
SPOKANE        CLOUDY    59  52  77 SW20G30   29.90F
$$

REGIONAL REPORTS...ALBERTA

CITY           SKY/WX    TMP DP  RH WIND       PRES   REMARKS
$$

REGIONAL REPORTS...SASKATCHEWAN

CITY           SKY/WX    TMP DP  RH WIND       PRES   REMARKS
$$


USA.gov is the U.S. government's official web portal to all federal, state and local government web resources and services.